Denver Centennial, CO

1:44 AM MST on February 19, 2018 (GMT -0700)
Centennial

Weather History for KAPA - July, 2013

Change the Weather History Date:

Thursday, July 25, 2013

  Actual Average Record
Temperature  
Mean Temperature 69 °F -  
Max Temperature 82 °F 84 °F 95 °F (2003)
Min Temperature 55 °F 57 °F 51 °F (2004)
Cooling Degree Days 4    
Month to date cooling degree days 220  
Growing Degree Days 18 (Base 50)    
Moisture  
Dew Point 52 °F    
Average Humidity 60    
Maximum Humidity 86    
Minimum Humidity 33    
Precipitation  
Precipitation 0.04 in - - ()
Month to date precipitation 0.47  
Year to date precipitation 6.44  
Sea Level Pressure  
Sea Level Pressure 30.10 in    
Wind  
Wind Speed 8 mph (West)    
Max Wind Speed 33 mph    
Max Gust Speed 41 mph    
Visibility 10 miles    
Events Rain , Thunderstorm    
Averages and records for this station are not official NWS values.
T = Trace of Precipitation, MM = Missing Value Source: NWS Daily Summary

Daily Weather History Graph

Daily Weather History Graph

Search for Another Location

Airport or City:

Trip Planner

Search our weather history database for the weather conditions in past years. The results will help you decide how hot, cold, wet, or windy it might be!

Date:

Astronomy

Jul. 25, 2013 Rise Set
Actual Time 5:52 AM MDT 8:18 PM MDT
Civil Twilight 5:22 AM MDT 8:49 PM MDT
Nautical Twilight 4:44 AM MDT 9:26 PM MDT
Astronomical Twilight 4:01 AM MDT 10:08 PM MDT
Moon 10:01 PM MDT (7/25) 9:24 AM MDT (7/25)
Length of Visible Light 15h 26m
Length of Day
14h 25m
Waning Gibbous, 88% of the Moon is Illuminated
Jul 25
Waning Gibbous
Jul 29
Last Quarter
Aug 6
New
Aug 14
First Quarter
Aug 20
Full

Hourly Weather History & Observations

Time (MDT) Temp. Dew Point Humidity Pressure Visibility Wind Dir Wind Speed Gust Speed Precip Events Conditions
12:53 AM 60.1 °F 53.1 °F 78% 30.05 in 10.0 mi WNW 11.5 mph - N/A   Scattered Clouds
1:53 AM 57.9 °F 53.1 °F 84% 30.07 in 10.0 mi NW 4.6 mph - N/A   Mostly Cloudy
1:56 AM 57.2 °F 53.6 °F 88% 30.24 in 10.0 mi NW 4.6 mph - N/A   Mostly Cloudy
2:11 AM 57.2 °F 53.6 °F 88% 30.22 in 10.0 mi NW 8.1 mph - N/A   Mostly Cloudy
2:53 AM 57.9 °F 53.1 °F 84% 30.04 in 10.0 mi West 5.8 mph - 0.00 in Rain Light Rain
3:53 AM 57.0 °F 53.1 °F 87% 30.01 in 10.0 mi South 3.5 mph - 0.00 in   Scattered Clouds
4:53 AM 57.0 °F 52.0 °F 83% 30.01 in 10.0 mi South 6.9 mph - N/A   Scattered Clouds
5:53 AM 57.9 °F 52.0 °F 81% 29.96 in 10.0 mi SE 11.5 mph - N/A   Mostly Cloudy
6:53 AM 60.1 °F 52.0 °F 75% 29.97 in 10.0 mi NW 6.9 mph - N/A   Mostly Cloudy
7:53 AM 61.0 °F 53.1 °F 75% 29.99 in 10.0 mi SW 3.5 mph - N/A   Mostly Cloudy
8:53 AM 64.9 °F 53.1 °F 65% 30.00 in 10.0 mi West 5.8 mph - N/A   Mostly Cloudy
9:53 AM 69.1 °F 52.0 °F 54% 30.00 in 10.0 mi Calm Calm - N/A   Mostly Cloudy
10:53 AM 71.1 °F 48.9 °F 45% 30.04 in 10.0 mi NE 4.6 mph - N/A   Mostly Cloudy
11:53 AM 73.0 °F 50.0 °F 44% 30.06 in 10.0 mi NNE 5.8 mph - 0.00 in   Mostly Cloudy
12:53 PM 78.1 °F 48.0 °F 35% 30.07 in 10.0 mi North 8.1 mph 16.1 mph N/A   Mostly Cloudy
1:53 PM 77.0 °F 46.9 °F 34% 30.07 in 10.0 mi Variable 6.9 mph - N/A   Scattered Clouds
2:53 PM 77.0 °F 50.0 °F 39% 30.09 in 10.0 mi NNW 23.0 mph 27.6 mph N/A   Mostly Cloudy
3:53 PM 64.0 °F 54.0 °F 70% 30.17 in 10.0 mi NNW 18.4 mph 25.3 mph 0.00 in   Mostly Cloudy
4:12 PM 62.6 °F 55.4 °F 77% 30.31 in 7.0 mi WNW 8.1 mph - 0.01 in Rain , Thunderstorm Light Thunderstorms and Rain
4:32 PM 62.6 °F 55.4 °F 77% 30.31 in 10.0 mi WSW 10.4 mph - 0.04 in Rain Light Rain
4:53 PM 62.1 °F 55.0 °F 78% 30.18 in 10.0 mi West 11.5 mph - 0.04 in   Mostly Cloudy
5:53 PM 66.9 °F 51.1 °F 57% 30.13 in 10.0 mi WSW 15.0 mph - N/A   Mostly Cloudy
6:53 PM 66.0 °F 53.1 °F 63% 30.13 in 10.0 mi WSW 9.2 mph - N/A   Mostly Cloudy
7:53 PM 64.9 °F 53.1 °F 65% 30.14 in 10.0 mi WSW 6.9 mph - N/A   Mostly Cloudy
8:53 PM 64.0 °F 51.1 °F 63% 30.13 in 10.0 mi South 3.5 mph - N/A   Mostly Cloudy
9:53 PM 60.1 °F 51.1 °F 72% 30.16 in 10.0 mi South 4.6 mph - N/A   Mostly Cloudy
10:53 PM 59.0 °F 50.0 °F 72% 30.17 in 10.0 mi SW 4.6 mph - N/A   Scattered Clouds
11:53 PM 62.1 °F 51.1 °F 67% 30.16 in 10.0 mi WSW 6.9 mph - N/A   Mostly Cloudy